sat.trackr.live / text

‹ back to catalog

STARLINK-34629

NORAD 64790 · 2025-150A

PAYLOAD ACTIVE UNKNOWN

§ Identity

Operator
Country
US
Launch date
2025-07-16
Launch site
AFWTR
Launch vehicle
Mass (kg)
RCS (m²)

Purposes: comms

External: N2YO · Heavens-Above · Gunter

§ Orbital elements

Epoch: 2026-09-20T14:07:51.065472Z

Period
96.11 min
Inclination
70.0041°
Eccentricity
0.0003005
Mean motion
14.98331167 rev/d
Perigee alt
570.0 km
Apogee alt
574.1 km
Semi-major
6,950.2 km
B*
1.1882e-4
RAAN
2.9410°
Arg perigee
252.0881°
Mean anomaly
107.9950°
Rev number
6,571

§ Raw data

STARLINK-346291 64790U 25150A   26263.58878548  .00001325  00000+0  11882-3 0  99942 64790  70.0041   2.9410 0003005 252.0881 107.9950 14.98331167 65713

JSON: /api/v1/satellites/64790 · /tle

For live sub-satellite position, see the globe view (requires WebGL).

§ Visibility from observer

Set your observer location to see the next 7 days of passes ≥ 10°. The values pass through the URL so the page stays shareable.

No JS? Fill the form by hand. The geolocation button needs JavaScript.